Location: Unspecified
(57.6483°N, 3.3184°W)
Time: 18:23:23
(UTC+01:00)

N. Korean satellite - Pass Details

Date: 26 February 2021
Orbit: 452 x 499 km, 97.2° (Epoch: 20 April)

Event Time Altitude Azimuth Distance (km) Brightness Sun altitude
Rises 04:27:40 0° 29° (NNE) 2,502 10.9 -22.9°
Reaches altitude 10° 04:30:51 10° 62° (ENE) 1,630 10.3 -22.5°
Maximum altitude 04:32:17 12° 86° (E) 1,509 10.0 -22.3°
Drops below altitude 10° 04:33:43 10° 110° (ESE) 1,635 9.9 -22.1°
Sets 04:36:55 0° 143° (SE) 2,518 10.4 -21.7°
